Track STARLINK-1683 now! 10-day predictions STARLINK-1683 is classified as:
1 46578U 20070AY 21025.25001157 -.01081037 00000-0 -30958-1 0 9998 2 46578 52.9992 260.2346 0001456 61.5661 82.9366 15.38095776 17836